| time (UTC) | temp F | wind direction | speed MPH | gust MPH | rain 1hr in | rain 24hr in | rain mn in | humidity % | barometer mb |
| 20260506014013 | 76 | 341 | 2.0 | 8.0 | 0.00 | 0.00 | 0.00 | 66 | 1006.2 |
| 20260506013511 | 76 | 0 | 2.0 | 8.0 | 0.00 | 0.00 | 0.00 | 67 | 1006.0 |
| 20260506013035 | 76 | 351 | 1.0 | 6.0 | 0.00 | 0.00 | 0.00 | 66 | 1005.8 |
| 20260506012513 | 77 | 341 | 2.0 | 9.0 | 0.00 | 0.00 | 0.00 | 65 | 1005.7 |
| 20260506012012 | 77 | 329 | 2.0 | 11.0 | 0.00 | 0.00 | 0.00 | 65 | 1005.9 |
| 20260506011531 | 77 | 1 | 3.0 | 11.0 | 0.00 | 0.00 | 0.00 | 64 | 1006.2 |
| 20260506011013 | 78 | 343 | 2.0 | 8.0 | 0.00 | 0.00 | 0.00 | 64 | 1005.8 |
| 20260506010511 | 78 | 25 | 0.0 | 4.0 | 0.00 | 0.00 | 0.00 | 63 | 1005.6 |
| 20260506010032 | 78 | 25 | 1.0 | 10.0 | 0.00 | 0.00 | 0.00 | 63 | 1005.5 |
| 20260506005510 | 79 | 330 | 2.0 | 10.0 | 0.00 | 0.00 | 0.00 | 63 | 1005.6 |
| 20260506005014 | 79 | 350 | 3.0 | 8.0 | 0.00 | 0.00 | 0.00 | 62 | 1005.1 |
| 20260506004534 | 80 | 43 | 2.0 | 9.0 | 0.00 | 0.00 | 0.00 | 62 | 1005.4 |
| 20260506004016 | 80 | 345 | 3.0 | 9.0 | 0.00 | 0.00 | 0.00 | 61 | 1005.4 |
| 20260506003518 | 81 | 329 | 2.0 | 8.0 | 0.00 | 0.00 | 0.00 | 60 | 1005.3 |
| 20260506003032 | 81 | 25 | 1.0 | 5.0 | 0.00 | 0.00 | 0.00 | 60 | 1005.1 |
| 20260506002512 | 82 | 29 | 2.0 | 8.0 | 0.00 | 0.00 | 0.00 | 60 | 1005.1 |
| 20260506002020 | 82 | 29 | 3.0 | 8.0 | 0.00 | 0.00 | 0.00 | 59 | 1005.2 |
| 20260506001532 | 83 | 4 | 1.0 | 7.0 | 0.00 | 0.00 | 0.00 | 59 | 1005.3 |
| 20260506001013 | 83 | 343 | 2.0 | 9.0 | 0.00 | 0.00 | 0.00 | 58 | 1005.1 |
| 20260506000514 | 84 | 355 | 2.0 | 9.0 | 0.00 | 0.00 | 0.00 | 57 | 1005.2 |
| 20260506000032 | 84 | 0 | 1.0 | 6.0 | 0.00 | 0.00 | 0.00 | 57 | 1004.9 |
| 20260505235513 | 85 | 1 | 2.0 | 12.0 | 0.00 | 0.00 | 0.00 | 57 | 1004.5 |
| 20260505235012 | 85 | 10 | 3.0 | 12.0 | 0.00 | 0.00 | 0.00 | 56 | 1004.4 |
| 20260505234532 | 86 | 330 | 3.0 | 10.0 | 0.00 | 0.00 | 0.00 | 54 | 1004.5 |
| 20260505234016 | 87 | 335 | 2.0 | 8.0 | 0.00 | 0.00 | 0.00 | 51 | 1004.4 |
| 20260505233514 | 87 | 357 | 2.0 | 8.0 | 0.00 | 0.00 | 0.00 | 50 | 1004.4 |
| 20260505233035 | 87 | 333 | 3.0 | 6.0 | 0.00 | 0.00 | 0.00 | 50 | 1004.4 |
| 20260505232512 | 87 | 349 | 2.0 | 10.0 | 0.00 | 0.00 | 0.00 | 50 | 1004.3 |
| 20260505232015 | 87 | 358 | 3.0 | 10.0 | 0.00 | 0.00 | 0.00 | 50 | 1004.3 |
| 20260505231546 | 87 | 360 | 3.0 | 10.0 | 0.00 | 0.00 | 0.00 | 50 | 1004.0 |
| 20260505231018 | 88 | 308 | 2.0 | 9.0 | 0.00 | 0.00 | 0.00 | 50 | 1003.9 |
| 20260505230512 | 88 | 299 | 1.0 | 6.0 | 0.00 | 0.00 | 0.00 | 53 | 1003.7 |
| 20260505230030 | 88 | 0 | 0.0 | 6.0 | 0.00 | 0.00 | 0.00 | 57 | 1003.7 |
| 20260505225514 | 88 | 212 | 2.0 | 5.0 | 0.00 | 0.00 | 0.00 | 56 | 1003.5 |
| 20260505225011 | 88 | 0 | 1.0 | 6.0 | 0.00 | 0.00 | 0.00 | 57 | 1003.4 |
| 20260505224532 | 88 | 0 | 1.0 | 6.0 | 0.00 | 0.00 | 0.00 | 57 | 1003.5 |
| 20260505224012 | 88 | 207 | 1.0 | 6.0 | 0.00 | 0.00 | 0.00 | 56 | 1003.7 |
| 20260505223514 | 88 | 231 | 0.0 | 7.0 | 0.00 | 0.00 | 0.00 | 56 | 1003.5 |
| 20260505223031 | 88 | 212 | 3.0 | 8.0 | 0.00 | 0.00 | 0.00 | 56 | 1003.4 |
| 20260505222517 | 89 | 166 | 1.0 | 8.0 | 0.00 | 0.00 | 0.00 | 56 | 1003.4 |
| 20260505222018 | 89 | 179 | 3.0 | 8.0 | 0.00 | 0.00 | 0.00 | 56 | 1003.2 |
| 20260505221534 | 89 | 183 | 1.0 | 8.0 | 0.00 | 0.00 | 0.00 | 56 | 1003.4 |
| 20260505221014 | 89 | 0 | 0.0 | 3.0 | 0.00 | 0.00 | 0.00 | 56 | 1003.5 |
| 20260505220515 | 89 | 0 | 0.0 | 4.0 | 0.00 | 0.00 | 0.00 | 55 | 1003.5 |
| 20260505220033 | 90 | 204 | 1.0 | 4.0 | 0.00 | 0.00 | 0.00 | 55 | 1003.6 |
| 20260505215515 | 91 | 221 | 0.0 | 6.0 | 0.00 | 0.00 | 0.00 | 54 | 1003.5 |
| 20260505215013 | 91 | 0 | 0.0 | 6.0 | 0.00 | 0.00 | 0.00 | 52 | 1003.5 |
| 20260505214548 | 92 | 222 | 1.0 | 5.0 | 0.00 | 0.00 | 0.00 | 52 | 1003.5 |
| 20260505214018 | 91 | 0 | 0.0 | 5.0 | 0.00 | 0.00 | 0.00 | 53 | 1003.5 |
| 20260505213514 | 91 | 208 | 2.0 | 5.0 | 0.00 | 0.00 | 0.00 | 53 | 1003.6 |
| 20260505213038 | 91 | 0 | 1.0 | 5.0 | 0.00 | 0.00 | 0.00 | 53 | 1003.7 |
| 20260505212514 | 91 | 321 | 0.0 | 5.0 | 0.00 | 0.00 | 0.00 | 53 | 1003.7 |
| 20260505212015 | 91 | 0 | 1.0 | 8.0 | 0.00 | 0.00 | 0.00 | 54 | 1003.7 |
| 20260505211530 | 91 | 215 | 2.0 | 9.0 | 0.00 | 0.00 | 0.00 | 56 | 1003.9 |
| 20260505211013 | 90 | 212 | 2.0 | 12.0 | 0.00 | 0.00 | 0.00 | 56 | 1003.9 |
| 20260505210512 | 89 | 193 | 4.0 | 12.0 | 0.00 | 0.00 | 0.00 | 57 | 1004.0 |
| 20260505210031 | 89 | 231 | 3.0 | 9.0 | 0.00 | 0.00 | 0.00 | 58 | 1003.9 |
| 20260505205516 | 89 | 206 | 2.0 | 9.0 | 0.00 | 0.00 | 0.00 | 58 | 1003.9 |
| 20260505205013 | 89 | 181 | 1.0 | 10.0 | 0.00 | 0.00 | 0.00 | 58 | 1004.1 |
| 20260505204531 | 89 | 218 | 4.0 | 13.0 | 0.00 | 0.00 | 0.00 | 59 | 1004.0 |
| 20260505204013 | 89 | 216 | 5.0 | 16.0 | 0.00 | 0.00 | 0.00 | 58 | 1004.2 |
| 20260505203513 | 89 | 191 | 3.0 | 16.0 | 0.00 | 0.00 | 0.00 | 59 | 1004.4 |
| 20260505203050 | 88 | 235 | 1.0 | 9.0 | 0.00 | 0.00 | 0.00 | 60 | 1004.5 |
| 20260505202513 | 88 | 230 | 3.0 | 7.0 | 0.00 | 0.00 | 0.00 | 60 | 1004.4 |
| 20260505202016 | 88 | 235 | 1.0 | 9.0 | 0.00 | 0.00 | 0.00 | 60 | 1004.6 |
| 20260505201540 | 88 | 241 | 1.0 | 9.0 | 0.00 | 0.00 | 0.00 | 59 | 1004.5 |
| 20260505201016 | 88 | 219 | 2.0 | 11.0 | 0.00 | 0.00 | 0.00 | 60 | 1004.5 |
| 20260505200515 | 87 | 238 | 4.0 | 11.0 | 0.00 | 0.00 | 0.00 | 61 | 1004.5 |
| 20260505200032 | 88 | 313 | 4.0 | 9.0 | 0.00 | 0.00 | 0.00 | 60 | 1004.6 |
| 20260505195515 | 87 | 0 | 1.0 | 13.0 | 0.00 | 0.00 | 0.00 | 61 | 1004.6 |
| 20260505195011 | 87 | 194 | 4.0 | 13.0 | 0.00 | 0.00 | 0.00 | 61 | 1004.5 |
| 20260505194530 | 87 | 0 | 2.0 | 12.0 | 0.00 | 0.00 | 0.00 | 62 | 1004.6 |
| 20260505194017 | 87 | 215 | 3.0 | 18.0 | 0.00 | 0.00 | 0.00 | 62 | 1004.6 |
| 20260505193512 | 87 | 220 | 2.0 | 18.0 | 0.00 | 0.00 | 0.00 | 61 | 1004.6 |
| 20260505193033 | 86 | 198 | 3.0 | 13.0 | 0.00 | 0.00 | 0.00 | 62 | 1004.5 |
| 20260505192513 | 86 | 211 | 5.0 | 13.0 | 0.00 | 0.00 | 0.00 | 63 | 1004.5 |
| 20260505192015 | 86 | 223 | 1.0 | 9.0 | 0.00 | 0.00 | 0.00 | 66 | 1004.5 |
| 20260505191533 | 85 | 0 | 2.0 | 9.0 | 0.00 | 0.00 | 0.00 | 65 | 1004.6 |
| 20260505191014 | 84 | 258 | 3.0 | 12.0 | 0.00 | 0.00 | 0.00 | 66 | 1004.5 |
| 20260505190515 | 84 | 210 | 3.0 | 12.0 | 0.00 | 0.00 | 0.00 | 67 | 1004.6 |
| 20260505190034 | 84 | 232 | 3.0 | 12.0 | 0.00 | 0.00 | 0.00 | 66 | 1004.7 |
| 20260505185518 | 84 | 226 | 4.0 | 12.0 | 0.00 | 0.00 | 0.00 | 67 | 1004.7 |
| 20260505185015 | 84 | 252 | 3.0 | 14.0 | 0.00 | 0.00 | 0.00 | 68 | 1004.7 |
| 20260505184536 | 84 | 207 | 4.0 | 14.0 | 0.00 | 0.00 | 0.00 | 68 | 1004.7 |
| 20260505184015 | 83 | 220 | 4.0 | 12.0 | 0.00 | 0.00 | 0.00 | 68 | 1004.7 |
| 20260505183515 | 83 | 212 | 2.0 | 10.0 | 0.00 | 0.00 | 0.00 | 68 | 1004.7 |
| 20260505183033 | 83 | 231 | 4.0 | 13.0 | 0.00 | 0.00 | 0.00 | 68 | 1004.8 |
| 20260505182513 | 83 | 219 | 2.0 | 13.0 | 0.00 | 0.00 | 0.00 | 68 | 1004.6 |
| 20260505182015 | 83 | 0 | 2.0 | 10.0 | 0.00 | 0.00 | 0.00 | 69 | 1004.6 |
| 20260505181540 | 83 | 219 | 1.0 | 12.0 | 0.00 | 0.00 | 0.00 | 69 | 1004.7 |
| 20260505181012 | 82 | 193 | 2.0 | 14.0 | 0.00 | 0.00 | 0.00 | 69 | 1004.6 |
| 20260505180514 | 82 | 248 | 4.0 | 14.0 | 0.00 | 0.00 | 0.00 | 70 | 1004.7 |
| 20260505180033 | 82 | 249 | 3.0 | 11.0 | 0.00 | 0.00 | 0.00 | 70 | 1004.6 |
| 20260505175514 | 82 | 208 | 3.0 | 9.0 | 0.00 | 0.00 | 0.00 | 69 | 1004.6 |
| 20260505175017 | 82 | 162 | 3.0 | 12.0 | 0.00 | 0.00 | 0.00 | 70 | 1004.5 |
| 20260505174540 | 82 | 195 | 3.0 | 14.0 | 0.00 | 0.00 | 0.00 | 70 | 1004.6 |
| 20260505174013 | 82 | 232 | 4.0 | 14.0 | 0.00 | 0.00 | 0.00 | 70 | 1004.9 |
| 20260505173513 | 82 | 193 | 4.0 | 9.0 | 0.00 | 0.00 | 0.00 | 69 | 1004.9 |
| 20260505173030 | 82 | 200 | 3.0 | 9.0 | 0.00 | 0.00 | 0.00 | 70 | 1005.0 |
| 20260505172515 | 82 | 271 | 2.0 | 14.0 | 0.00 | 0.00 | 0.00 | 70 | 1004.9 |
| 20260505172015 | 81 | 216 | 2.0 | 14.0 | 0.00 | 0.00 | 0.00 | 71 | 1004.9 |
| 20260505171533 | 81 | 218 | 4.0 | 14.0 | 0.00 | 0.00 | 0.00 | 71 | 1005.0 |
| 20260505171014 | 81 | 245 | 5.0 | 14.0 | 0.00 | 0.00 | 0.00 | 71 | 1004.9 |
| 20260505170513 | 81 | 245 | 5.0 | 13.0 | 0.00 | 0.00 | 0.00 | 71 | 1004.8 |
| 20260505170035 | 80 | 183 | 3.0 | 13.0 | 0.00 | 0.00 | 0.00 | 73 | 1005.0 |
| 20260505165513 | 80 | 216 | 4.0 | 19.0 | 0.00 | 0.00 | 0.00 | 72 | 1005.0 |
| 20260505165013 | 80 | 176 | 7.0 | 19.0 | 0.00 | 0.00 | 0.00 | 72 | 1004.9 |
| 20260505164533 | 80 | 236 | 2.0 | 15.0 | 0.00 | 0.00 | 0.00 | 73 | 1004.7 |
| 20260505164012 | 80 | 214 | 7.0 | 15.0 | 0.00 | 0.00 | 0.00 | 72 | 1004.8 |
| 20260505163510 | 80 | 168 | 5.0 | 15.0 | 0.00 | 0.00 | 0.00 | 72 | 1004.8 |
| 20260505163034 | 80 | 218 | 5.0 | 15.0 | 0.00 | 0.00 | 0.00 | 72 | 1004.6 |
| 20260505162514 | 80 | 0 | 3.0 | 10.0 | 0.00 | 0.00 | 0.00 | 73 | 1004.8 |
| 20260505162014 | 79 | 226 | 3.0 | 16.0 | 0.00 | 0.00 | 0.00 | 73 | 1004.9 |
| 20260505161530 | 79 | 230 | 6.0 | 16.0 | 0.00 | 0.00 | 0.00 | 73 | 1004.8 |
| 20260505161014 | 79 | 245 | 5.0 | 15.0 | 0.00 | 0.00 | 0.00 | 74 | 1004.8 |
| 20260505160513 | 78 | 182 | 6.0 | 15.0 | 0.00 | 0.00 | 0.00 | 74 | 1004.8 |
| 20260505153035 | 78 | 267 | 3.0 | 13.0 | 0.00 | 0.00 | 0.00 | 76 | 1004.6 |
| 20260505152513 | 77 | 222 | 6.0 | 13.0 | 0.00 | 0.00 | 0.00 | 77 | 1004.8 |
| 20260505152017 | 77 | 245 | 7.0 | 13.0 | 0.00 | 0.00 | 0.00 | 77 | 1004.7 |
| 20260505151545 | 77 | 209 | 6.0 | 13.0 | 0.00 | 0.00 | 0.00 | 78 | 1004.7 |
| 20260505151013 | 76 | 282 | 4.0 | 13.0 | 0.00 | 0.00 | 0.00 | 79 | 1004.7 |
| 20260505150515 | 76 | 277 | 3.0 | 12.0 | 0.00 | 0.00 | 0.00 | 79 | 1004.9 |
| 20260505140513 | 73 | 161 | 2.0 | 15.0 | 0.00 | 0.00 | 0.00 | 83 | 1004.5 |
| 20260505125014 | 72 | 195 | 3.0 | 11.0 | 0.00 | 0.00 | 0.00 | 85 | 1004.2 |
| 20260505124532 | 72 | 217 | 3.0 | 11.0 | 0.00 | 0.00 | 0.00 | 85 | 1004.2 |
| 20260505124018 | 72 | 0 | 1.0 | 12.0 | 0.00 | 0.00 | 0.00 | 85 | 1004.3 |
| 20260505123513 | 72 | 220 | 4.0 | 12.0 | 0.00 | 0.00 | 0.00 | 84 | 1004.1 |
| 20260505123033 | 72 | 0 | 2.0 | 11.0 | 0.00 | 0.00 | 0.00 | 85 | 1004.0 |
| 20260505122514 | 72 | 0 | 2.0 | 12.0 | 0.00 | 0.00 | 0.00 | 85 | 1003.8 |
| 20260505122013 | 72 | 218 | 2.0 | 12.0 | 0.00 | 0.00 | 0.00 | 85 | 1003.9 |
| 20260505121531 | 72 | 199 | 2.0 | 9.0 | 0.00 | 0.00 | 0.00 | 85 | 1003.8 |
| 20260505121013 | 72 | 200 | 1.0 | 10.0 | 0.00 | 0.00 | 0.00 | 85 | 1003.8 |
| 20260505120517 | 72 | 191 | 2.0 | 11.0 | 0.00 | 0.00 | 0.00 | 85 | 1003.8 |
| 20260505120038 | 71 | 140 | 3.0 | 11.0 | 0.00 | 0.00 | 0.00 | 85 | 1003.8 |
| 20260505115515 | 71 | 0 | 2.0 | 14.0 | 0.00 | 0.00 | 0.00 | 85 | 1003.8 |
| 20260505115013 | 71 | 166 | 2.0 | 14.0 | 0.00 | 0.00 | 0.00 | 85 | 1003.7 |
| 20260505114530 | 71 | 205 | 2.0 | 16.0 | 0.00 | 0.00 | 0.00 | 85 | 1003.7 |
| 20260505114016 | 71 | 0 | 2.0 | 16.0 | 0.00 | 0.00 | 0.00 | 85 | 1003.7 |
| 20260505113514 | 71 | 219 | 2.0 | 9.0 | 0.00 | 0.00 | 0.00 | 85 | 1003.7 |
| 20260505113030 | 71 | 0 | 3.0 | 8.0 | 0.00 | 0.00 | 0.00 | 85 | 1003.5 |
| 20260505112516 | 71 | 0 | 2.0 | 12.0 | 0.00 | 0.00 | 0.00 | 85 | 1003.5 |
| 20260505112013 | 71 | 205 | 3.0 | 12.0 | 0.00 | 0.00 | 0.00 | 85 | 1003.6 |
| 20260505111532 | 71 | 193 | 3.0 | 12.0 | 0.00 | 0.00 | 0.00 | 85 | 1003.6 |
| 20260505111013 | 71 | 204 | 3.0 | 12.0 | 0.00 | 0.00 | 0.00 | 85 | 1003.7 |
| 20260505110514 | 71 | 227 | 4.0 | 12.0 | 0.00 | 0.00 | 0.00 | 85 | 1003.6 |
| 20260505102015 | 71 | 204 | 4.0 | 12.0 | 0.00 | 0.00 | 0.00 | 84 | 1003.6 |
| 20260505101532 | 72 | 214 | 2.0 | 12.0 | 0.00 | 0.00 | 0.00 | 84 | 1003.8 |
| 20260505101014 | 72 | 0 | 2.0 | 14.0 | 0.00 | 0.00 | 0.00 | 84 | 1003.8 |
| 20260505100516 | 72 | 195 | 5.0 | 16.0 | 0.00 | 0.00 | 0.00 | 84 | 1003.8 |
| 20260505100034 | 72 | 196 | 5.0 | 16.0 | 0.00 | 0.00 | 0.00 | 84 | 1003.7 |
| 20260505095514 | 72 | 216 | 1.0 | 15.0 | 0.00 | 0.00 | 0.00 | 84 | 1003.8 |
| 20260505095012 | 72 | 168 | 5.0 | 15.0 | 0.00 | 0.00 | 0.00 | 84 | 1003.8 |
| 20260505094530 | 72 | 222 | 3.0 | 14.0 | 0.00 | 0.00 | 0.00 | 84 | 1004.0 |
| 20260505094013 | 72 | 202 | 4.0 | 14.0 | 0.00 | 0.00 | 0.00 | 84 | 1003.9 |
| 20260505093513 | 71 | 204 | 2.0 | 12.0 | 0.00 | 0.00 | 0.00 | 84 | 1003.9 |
| 20260505093040 | 71 | 258 | 3.0 | 10.0 | 0.00 | 0.00 | 0.00 | 84 | 1003.9 |
| 20260505092512 | 71 | 211 | 3.0 | 11.0 | 0.00 | 0.00 | 0.00 | 84 | 1004.0 |
| 20260505092015 | 71 | 218 | 3.0 | 11.0 | 0.00 | 0.00 | 0.00 | 84 | 1004.3 |
| 20260505091532 | 71 | 214 | 4.0 | 11.0 | 0.00 | 0.00 | 0.00 | 84 | 1004.0 |
| 20260505091015 | 71 | 0 | 3.0 | 14.0 | 0.00 | 0.00 | 0.00 | 84 | 1004.3 |
| 20260505090512 | 71 | 221 | 4.0 | 14.0 | 0.00 | 0.00 | 0.00 | 84 | 1004.5 |
| 20260505090038 | 71 | 206 | 5.0 | 13.0 | 0.00 | 0.00 | 0.00 | 84 | 1004.0 |
| 20260505085514 | 71 | 194 | 5.0 | 13.0 | 0.00 | 0.00 | 0.00 | 84 | 1004.1 |
| 20260505085016 | 71 | 149 | 4.0 | 15.0 | 0.00 | 0.00 | 0.00 | 84 | 1004.0 |
| 20260505084532 | 71 | 200 | 4.0 | 15.0 | 0.00 | 0.00 | 0.00 | 84 | 1004.1 |
| 20260505084012 | 71 | 227 | 3.0 | 11.0 | 0.00 | 0.00 | 0.00 | 84 | 1004.2 |
| 20260505083513 | 71 | 133 | 2.0 | 11.0 | 0.00 | 0.00 | 0.00 | 84 | 1004.3 |
| 20260505083033 | 71 | 198 | 3.0 | 12.0 | 0.00 | 0.00 | 0.00 | 84 | 1004.1 |
| 20260505082511 | 71 | 183 | 4.0 | 12.0 | 0.00 | 0.00 | 0.00 | 84 | 1004.3 |
| 20260505082014 | 71 | 232 | 4.0 | 12.0 | 0.00 | 0.00 | 0.00 | 84 | 1004.2 |
| 20260505081532 | 71 | 224 | 4.0 | 15.0 | 0.00 | 0.00 | 0.00 | 84 | 1004.3 |
| 20260505081012 | 71 | 229 | 5.0 | 16.0 | 0.00 | 0.00 | 0.00 | 83 | 1004.4 |
| 20260505080516 | 71 | 0 | 3.0 | 16.0 | 0.00 | 0.00 | 0.00 | 83 | 1004.4 |
| 20260505080032 | 71 | 166 | 3.0 | 15.0 | 0.00 | 0.00 | 0.00 | 83 | 1004.4 |
| 20260505075514 | 72 | 220 | 5.0 | 13.0 | 0.00 | 0.00 | 0.00 | 83 | 1004.3 |
| 20260505075015 | 72 | 201 | 4.0 | 13.0 | 0.00 | 0.00 | 0.00 | 82 | 1004.4 |
| 20260505074531 | 72 | 189 | 5.0 | 13.0 | 0.00 | 0.00 | 0.00 | 82 | 1004.5 |
| 20260505074012 | 72 | 170 | 3.0 | 12.0 | 0.00 | 0.00 | 0.00 | 82 | 1004.7 |
| 20260505073511 | 72 | 163 | 3.0 | 12.0 | 0.00 | 0.00 | 0.00 | 82 | 1004.8 |
| 20260505073037 | 72 | 229 | 3.0 | 14.0 | 0.00 | 0.00 | 0.00 | 82 | 1005.0 |
| 20260505072513 | 72 | 181 | 1.0 | 14.0 | 0.00 | 0.00 | 0.00 | 81 | 1004.9 |
| 20260505072012 | 72 | 246 | 4.0 | 14.0 | 0.00 | 0.00 | 0.00 | 81 | 1005.1 |
| 20260505071529 | 72 | 213 | 4.0 | 16.0 | 0.00 | 0.00 | 0.00 | 81 | 1005.1 |
| 20260505071011 | 72 | 206 | 4.0 | 16.0 | 0.00 | 0.00 | 0.00 | 81 | 1005.2 |
| 20260505070512 | 72 | 213 | 3.0 | 11.0 | 0.00 | 0.00 | 0.00 | 81 | 1005.2 |
| 20260505070032 | 72 | 207 | 5.0 | 17.0 | 0.00 | 0.00 | 0.00 | 80 | 1005.3 |
| 20260505065511 | 72 | 200 | 4.0 | 17.0 | 0.00 | 0.00 | 0.00 | 80 | 1005.3 |
| 20260505065015 | 72 | 191 | 4.0 | 13.0 | 0.00 | 0.00 | 0.00 | 80 | 1005.4 |
| 20260505064531 | 72 | 199 | 3.0 | 13.0 | 0.00 | 0.00 | 0.00 | 80 | 1005.6 |
| 20260505064013 | 72 | 207 | 4.0 | 11.0 | 0.00 | 0.00 | 0.00 | 80 | 1005.5 |
| 20260505063513 | 72 | 213 | 4.0 | 12.0 | 0.00 | 0.00 | 0.00 | 80 | 1005.5 |
| 20260505063038 | 72 | 224 | 5.0 | 12.0 | 0.00 | 0.00 | 0.00 | 79 | 1005.5 |
| 20260505062519 | 72 | 204 | 3.0 | 13.0 | 0.00 | 0.00 | 0.00 | 79 | 1005.5 |
| 20260505062016 | 72 | 212 | 4.0 | 13.0 | 0.00 | 0.00 | 0.00 | 79 | 1005.6 |
| 20260505061531 | 72 | 198 | 3.0 | 12.0 | 0.00 | 0.00 | 0.00 | 79 | 1005.6 |
| 20260505061018 | 72 | 207 | 5.0 | 12.0 | 0.00 | 0.00 | 0.00 | 79 | 1005.7 |
| 20260505060514 | 72 | 192 | 3.0 | 11.0 | 0.00 | 0.00 | 0.00 | 78 | 1005.5 |
| 20260505060034 | 72 | 202 | 4.0 | 12.0 | 0.00 | 0.00 | 0.00 | 78 | 1005.7 |
| 20260505055514 | 73 | 186 | 4.0 | 15.0 | 0.00 | 0.00 | 0.00 | 78 | 1005.7 |
| 20260505055017 | 73 | 208 | 6.0 | 15.0 | 0.00 | 0.00 | 0.00 | 78 | 1005.6 |
| 20260505054537 | 73 | 172 | 4.0 | 13.0 | 0.00 | 0.00 | 0.00 | 77 | 1005.8 |
| 20260505054014 | 73 | 177 | 4.0 | 12.0 | 0.00 | 0.00 | 0.00 | 77 | 1005.8 |
| 20260505053514 | 73 | 153 | 4.0 | 11.0 | 0.00 | 0.00 | 0.00 | 77 | 1005.8 |
| 20260505053041 | 73 | 219 | 3.0 | 13.0 | 0.00 | 0.00 | 0.00 | 77 | 1005.9 |
| 20260505052512 | 73 | 151 | 5.0 | 18.0 | 0.00 | 0.00 | 0.00 | 77 | 1005.8 |
| 20260505052015 | 73 | 206 | 5.0 | 18.0 | 0.00 | 0.00 | 0.00 | 76 | 1005.9 |
| 20260505051535 | 73 | 187 | 4.0 | 14.0 | 0.00 | 0.00 | 0.00 | 76 | 1005.9 |
| 20260505051014 | 73 | 226 | 4.0 | 16.0 | 0.00 | 0.00 | 0.00 | 76 | 1005.9 |
| 20260505050517 | 73 | 218 | 5.0 | 16.0 | 0.00 | 0.00 | 0.00 | 76 | 1005.9 |
| 20260505041532 | 74 | 155 | 3.0 | 9.0 | 0.00 | 0.00 | 0.00 | 74 | 1006.2 |
| 20260505041014 | 74 | 177 | 3.0 | 15.0 | 0.00 | 0.00 | 0.00 | 74 | 1006.1 |
| 20260505040513 | 74 | 171 | 4.0 | 15.0 | 0.00 | 0.00 | 0.00 | 74 | 1006.2 |
| 20260505040034 | 74 | 196 | 4.0 | 14.0 | 0.00 | 0.00 | 0.00 | 73 | 1006.3 |
| 20260505035513 | 74 | 223 | 4.0 | 14.0 | 0.00 | 0.00 | 0.00 | 73 | 1006.1 |
| 20260505035013 | 74 | 204 | 5.0 | 13.0 | 0.00 | 0.00 | 0.00 | 73 | 1006.0 |
| 20260505034532 | 74 | 215 | 5.0 | 14.0 | 0.00 | 0.00 | 0.00 | 73 | 1006.1 |
| 20260505034013 | 74 | 181 | 4.0 | 14.0 | 0.00 | 0.00 | 0.00 | 73 | 1006.0 |
| 20260505033514 | 74 | 193 | 3.0 | 12.0 | 0.00 | 0.00 | 0.00 | 72 | 1005.9 |
| 20260505033045 | 74 | 142 | 4.0 | 12.0 | 0.00 | 0.00 | 0.00 | 72 | 1005.9 |
| 20260505032511 | 74 | 227 | 4.0 | 12.0 | 0.00 | 0.00 | 0.00 | 72 | 1006.0 |
| 20260505032010 | 75 | 217 | 4.0 | 12.0 | 0.00 | 0.00 | 0.00 | 72 | 1006.1 |
| 20260505031532 | 75 | 195 | 5.0 | 12.0 | 0.00 | 0.00 | 0.00 | 72 | 1006.1 |
| 20260505031014 | 75 | 0 | 3.0 | 16.0 | 0.00 | 0.00 | 0.00 | 72 | 1006.2 |
| 20260505030514 | 75 | 209 | 4.0 | 16.0 | 0.00 | 0.00 | 0.00 | 71 | 1006.2 |
| 20260505030035 | 75 | 198 | 4.0 | 13.0 | 0.00 | 0.00 | 0.00 | 71 | 1006.1 |
| 20260505025512 | 75 | 144 | 5.0 | 13.0 | 0.00 | 0.00 | 0.00 | 71 | 1006.2 |
| 20260505025013 | 75 | 218 | 5.0 | 13.0 | 0.00 | 0.00 | 0.00 | 71 | 1006.2 |
| 20260505024534 | 75 | 216 | 3.0 | 12.0 | 0.00 | 0.00 | 0.00 | 71 | 1006.1 |
| 20260505024013 | 75 | 198 | 5.0 | 12.0 | 0.00 | 0.00 | 0.00 | 71 | 1006.2 |
| 20260505023513 | 75 | 208 | 3.0 | 11.0 | 0.00 | 0.00 | 0.00 | 71 | 1006.2 |
| 20260505023039 | 75 | 212 | 4.0 | 11.0 | 0.00 | 0.00 | 0.00 | 71 | 1006.0 |
| 20260505022515 | 75 | 209 | 5.0 | 11.0 | 0.00 | 0.00 | 0.00 | 71 | 1005.9 |
| 20260505022015 | 75 | 195 | 3.0 | 14.0 | 0.00 | 0.00 | 0.00 | 71 | 1005.9 |
| 20260505021534 | 75 | 196 | 4.0 | 14.0 | 0.00 | 0.00 | 0.00 | 71 | 1006.2 |
| 20260505021012 | 75 | 190 | 6.0 | 14.0 | 0.00 | 0.00 | 0.00 | 70 | 1005.9 |
| 20260505020516 | 75 | 204 | 4.0 | 14.0 | 0.00 | 0.00 | 0.00 | 70 | 1005.9 |
| 20260505020030 | 75 | 170 | 5.0 | 14.0 | 0.00 | 0.00 | 0.00 | 70 | 1005.7 |
| 20260505015513 | 75 | 177 | 4.0 | 12.0 | 0.00 | 0.00 | 0.00 | 70 | 1005.8 |
| 20260505015014 | 76 | 200 | 3.0 | 15.0 | 0.00 | 0.00 | 0.00 | 70 | 1005.8 |
| 20260505014533 | 76 | 222 | 6.0 | 15.0 | 0.00 | 0.00 | 0.00 | 70 | 1005.8 |